Time,TemperatureF,DewpointF,PressureIn,WindDirection,WindDirectionDegrees,WindSpeedMPH,WindSpeedGustMPH,Humidity,HourlyPrecipIn,Conditions,Clouds,dailyrainin,SoftwareType,DateUTC
2013-01-16 00:00:00,41.7,40.7,30.14,NNW,338,0.0,0.0,96,0.01,,---,0.00,VWS V14.01,2013-01-16 05:00:00,
2013-01-16 00:01:00,41.7,40.7,30.14,NNW,338,0.0,0.0,96,0.01,,---,0.00,VWS V14.01,2013-01-16 05:01:00,
2013-01-16 00:03:00,41.7,40.7,30.15,NNW,338,0.0,0.0,96,0.01,,---,0.00,VWS V14.01,2013-01-16 05:03:00,
2013-01-16 00:08:00,41.7,40.7,30.14,NNW,338,0.0,0.0,96,0.01,,---,0.00,VWS V14.01,2013-01-16 05:08:00,
2013-01-16 00:13:00,41.7,40.7,30.14,NNW,338,0.0,0.0,96,0.01,,---,0.00,VWS V14.01,2013-01-16 05:13:00,
2013-01-16 00:18:00,41.7,40.7,30.14,NNW,338,0.0,0.0,96,0.01,,---,0.00,VWS V14.01,2013-01-16 05:18:00,
2013-01-16 00:23:00,41.7,40.7,30.13,NNW,338,0.0,0.0,96,0.01,,---,0.00,VWS V14.01,2013-01-16 05:23:00,
2013-01-16 00:28:00,41.7,40.7,30.12,NNW,338,0.0,0.0,96,0.01,,---,0.00,VWS V14.01,2013-01-16 05:28:00,
2013-01-16 00:30:00,41.7,40.7,30.12,NNW,338,0.0,0.0,96,0.01,,---,0.00,VWS V14.01,2013-01-16 05:30:00,
2013-01-16 00:33:00,41.7,40.7,30.12,NNW,338,0.0,0.0,96,0.01,,---,0.00,VWS V14.01,2013-01-16 05:33:00,
2013-01-16 00:38:00,41.6,40.5,30.12,NNW,338,0.0,0.0,96,0.01,,---,0.00,VWS V14.01,2013-01-16 05:38:00,
2013-01-16 00:43:00,41.7,40.7,30.11,NNW,338,0.0,0.0,96,0.01,,---,0.00,VWS V14.01,2013-01-16 05:43:00,
2013-01-16 00:48:00,41.6,40.5,30.12,NNW,338,0.0,0.0,96,0.01,,---,0.00,VWS V14.01,2013-01-16 05:48:00,
2013-01-16 00:53:00,41.6,40.5,30.11,NNW,341,0.0,3.0,96,0.02,,---,0.01,VWS V14.01,2013-01-16 05:53:00,
2013-01-16 00:58:00,41.6,40.5,30.11,NNW,341,0.0,0.0,96,0.01,,---,0.01,VWS V14.01,2013-01-16 05:58:00,
2013-01-16 01:00:00,41.6,40.5,30.11,NNW,341,0.0,3.0,96,0.02,,---,0.01,VWS V14.01,2013-01-16 06:00:00,
2013-01-16 01:03:00,41.6,40.5,30.11,NNW,341,0.0,0.0,96,0.01,,---,0.01,VWS V14.01,2013-01-16 06:03:00,
2013-01-16 01:08:00,41.6,40.5,30.12,NNW,341,0.0,0.0,96,0.01,,---,0.01,VWS V14.01,2013-01-16 06:08:00,
2013-01-16 01:13:00,41.5,40.5,30.12,NNW,341,0.0,0.0,96,0.01,,---,0.01,VWS V14.01,2013-01-16 06:13:00,
2013-01-16 01:18:00,41.5,40.5,30.11,NNW,341,0.0,2.0,96,0.01,,---,0.01,VWS V14.01,2013-01-16 06:18:00,
2013-01-16 01:23:00,41.5,40.5,30.11,NNW,341,1.0,2.0,96,0.01,,---,0.01,VWS V14.01,2013-01-16 06:23:00,
2013-01-16 01:28:00,41.5,40.5,30.11,NNW,341,0.0,0.0,96,0.01,,---,0.01,VWS V14.01,2013-01-16 06:28:00,
2013-01-16 01:30:00,41.5,40.5,30.10,NNW,341,0.0,2.0,96,0.01,,---,0.01,VWS V14.01,2013-01-16 06:30:00,
2013-01-16 01:33:00,41.4,40.3,30.11,NNW,341,0.0,1.0,96,0.01,,---,0.01,VWS V14.01,2013-01-16 06:33:00,
2013-01-16 01:38:00,41.4,40.3,30.11,NNW,341,0.0,1.0,96,0.01,,---,0.01,VWS V14.01,2013-01-16 06:38:00,
2013-01-16 01:43:00,41.3,40.2,30.12,NNW,341,0.0,1.0,96,0.01,,---,0.01,VWS V14.01,2013-01-16 06:43:00,
2013-01-16 01:48:00,41.3,40.2,30.11,NNW,341,0.0,1.0,96,0.01,,---,0.01,VWS V14.01,2013-01-16 06:48:00,
2013-01-16 01:53:00,41.2,40.2,30.11,NNW,342,1.0,2.0,96,0.01,,---,0.01,VWS V14.01,2013-01-16 06:53:00,
2013-01-16 01:58:00,41.0,40.0,30.11,NNW,342,0.0,0.0,96,0.00,,---,0.01,VWS V14.01,2013-01-16 06:58:00,
2013-01-16 02:00:00,41.0,40.0,30.11,NNW,342,0.0,2.0,96,0.01,,---,0.01,VWS V14.01,2013-01-16 07:00:00,
2013-01-16 02:03:00,40.9,39.8,30.12,NNW,342,0.0,0.0,96,0.00,,---,0.01,VWS V14.01,2013-01-16 07:03:00,
2013-01-16 02:08:00,40.8,39.8,30.12,NNW,342,0.0,1.0,96,0.00,,---,0.01,VWS V14.01,2013-01-16 07:08:00,
2013-01-16 02:13:00,40.7,39.7,30.12,NNW,342,0.0,1.0,96,0.00,,---,0.01,VWS V14.01,2013-01-16 07:13:00,
2013-01-16 02:18:00,40.6,39.5,30.12,NNW,342,0.0,1.0,96,0.00,,---,0.01,VWS V14.01,2013-01-16 07:18:00,
2013-01-16 02:23:00,40.5,39.5,30.12,NNW,339,0.0,2.0,96,0.00,,---,0.01,VWS V14.01,2013-01-16 07:23:00,
2013-01-16 02:28:00,40.3,39.2,30.12,NNW,339,0.0,0.0,96,0.00,,---,0.01,VWS V14.01,2013-01-16 07:28:00,
2013-01-16 02:30:00,40.3,39.2,30.12,NNW,339,0.0,2.0,96,0.00,,---,0.01,VWS V14.01,2013-01-16 07:30:00,
2013-01-16 02:33:00,40.2,39.2,30.12,NNW,339,0.0,2.0,96,0.00,,---,0.01,VWS V14.01,2013-01-16 07:33:00,
2013-01-16 02:38:00,40.1,39.0,30.12,NNW,339,0.0,2.0,96,0.00,,---,0.01,VWS V14.01,2013-01-16 07:38:00,
2013-01-16 02:43:00,40.0,39.0,30.12,NNW,339,0.0,2.0,96,0.01,,---,0.02,VWS V14.01,2013-01-16 07:43:00,
2013-01-16 02:48:00,39.9,38.8,30.12,NNW,339,0.0,2.0,96,0.01,,---,0.02,VWS V14.01,2013-01-16 07:48:00,
2013-01-16 02:54:00,39.7,38.7,30.12,NW,323,0.0,3.0,96,0.01,,---,0.02,VWS V14.01,2013-01-16 07:54:00,
2013-01-16 02:59:00,39.6,38.6,30.12,NW,320,0.0,1.0,96,0.01,,---,0.02,VWS V14.01,2013-01-16 07:59:00,
2013-01-16 03:00:00,39.6,38.6,30.12,NW,320,0.0,3.0,96,0.01,,---,0.02,VWS V14.01,2013-01-16 08:00:00,
2013-01-16 03:04:00,39.5,38.5,30.13,North,349,1.0,3.0,96,0.01,,---,0.02,VWS V14.01,2013-01-16 08:04:00,
2013-01-16 03:09:00,39.5,38.5,30.12,NE,39,0.0,3.0,96,0.01,,---,0.02,VWS V14.01,2013-01-16 08:09:00,
2013-01-16 03:14:00,39.5,38.5,30.13,North,349,0.0,3.0,96,0.01,,---,0.02,VWS V14.01,2013-01-16 08:14:00,
2013-01-16 03:19:00,39.4,38.4,30.13,NW,321,1.0,3.0,96,0.01,,---,0.02,VWS V14.01,2013-01-16 08:19:00,
2013-01-16 03:24:00,39.4,38.4,30.13,North,360,0.0,3.0,96,0.01,,---,0.02,VWS V14.01,2013-01-16 08:24:00,
2013-01-16 03:29:00,39.3,38.3,30.12,North,5,0.0,0.0,96,0.01,,---,0.02,VWS V14.01,2013-01-16 08:29:00,
2013-01-16 03:30:00,39.3,38.3,30.12,North,5,0.0,3.0,96,0.01,,---,0.02,VWS V14.01,2013-01-16 08:30:00,
2013-01-16 03:34:00,39.3,38.3,30.12,NE,45,0.0,1.0,96,0.01,,---,0.02,VWS V14.01,2013-01-16 08:34:00,
2013-01-16 03:39:00,39.2,38.2,30.12,NNW,331,2.0,3.0,96,0.01,,---,0.02,VWS V14.01,2013-01-16 08:39:00,
2013-01-16 03:44:00,39.0,38.0,30.13,NW,311,0.0,4.0,96,0.01,,---,0.02,VWS V14.01,2013-01-16 08:44:00,
2013-01-16 03:49:00,38.9,37.9,30.13,NW,319,2.0,4.0,96,0.01,,---,0.02,VWS V14.01,2013-01-16 08:49:00,
2013-01-16 03:54:00,38.9,37.9,30.13,NW,313,2.0,4.0,96,0.01,,---,0.02,VWS V14.01,2013-01-16 08:54:00,
2013-01-16 03:59:00,38.8,37.8,30.13,NW,317,3.0,4.0,96,0.00,,---,0.02,VWS V14.01,2013-01-16 08:59:00,
2013-01-16 04:00:00,38.9,37.9,30.13,NNE,13,3.0,4.0,96,0.01,,---,0.02,VWS V14.01,2013-01-16 09:00:00,
2013-01-16 04:04:00,38.6,37.6,30.11,NNE,32,0.0,7.0,96,0.00,,---,0.02,VWS V14.01,2013-01-16 09:04:00,
2013-01-16 04:09:00,38.5,37.5,30.12,NNW,328,0.0,7.0,96,0.00,,---,0.02,VWS V14.01,2013-01-16 09:09:00,
2013-01-16 04:14:00,38.4,37.4,30.11,North,355,0.0,7.0,96,0.00,,---,0.02,VWS V14.01,2013-01-16 09:14:00,
2013-01-16 04:19:00,38.3,37.3,30.10,NNE,19,0.0,7.0,96,0.00,,---,0.02,VWS V14.01,2013-01-16 09:19:00,
2013-01-16 04:24:00,38.3,37.3,30.09,NW,321,0.0,7.0,96,0.00,,---,0.02,VWS V14.01,2013-01-16 09:24:00,
2013-01-16 04:29:00,38.1,37.1,30.10,NNW,346,0.0,2.0,96,0.00,,---,0.02,VWS V14.01,2013-01-16 09:29:00,
2013-01-16 04:30:00,38.2,37.2,30.10,NW,321,0.0,7.0,96,0.00,,---,0.02,VWS V14.01,2013-01-16 09:30:00,
2013-01-16 04:34:00,38.1,37.1,30.10,NW,319,0.0,2.0,96,0.00,,---,0.02,VWS V14.01,2013-01-16 09:34:00,
2013-01-16 04:39:00,38.0,37.0,30.10,NW,322,1.0,4.0,96,0.00,,---,0.02,VWS V14.01,2013-01-16 09:39:00,
2013-01-16 04:44:00,37.8,36.8,30.09,NW,318,0.0,4.0,96,0.00,,---,0.02,VWS V14.01,2013-01-16 09:44:00,
2013-01-16 04:49:00,37.7,36.7,30.08,NNW,346,0.0,4.0,96,0.00,,---,0.02,VWS V14.01,2013-01-16 09:49:00,
2013-01-16 04:54:00,37.7,36.7,30.08,NNW,346,0.0,4.0,96,0.00,,---,0.02,VWS V14.01,2013-01-16 09:54:00,
2013-01-16 04:59:00,37.6,36.6,30.08,North,350,1.0,2.0,96,0.00,,---,0.02,VWS V14.01,2013-01-16 09:59:00,
2013-01-16 05:00:00,37.7,36.7,30.08,North,355,0.0,4.0,96,0.00,,---,0.02,VWS V14.01,2013-01-16 10:00:00,
2013-01-16 05:04:00,37.5,36.5,30.08,North,350,0.0,2.0,96,0.01,,---,0.03,VWS V14.01,2013-01-16 10:04:00,
2013-01-16 05:09:00,37.4,36.4,30.08,North,350,0.0,2.0,96,0.01,,---,0.03,VWS V14.01,2013-01-16 10:09:00,
2013-01-16 05:14:00,37.4,36.4,30.08,North,350,0.0,2.0,96,0.01,,---,0.03,VWS V14.01,2013-01-16 10:14:00,
2013-01-16 05:19:00,37.3,36.3,30.08,North,350,0.0,2.0,96,0.01,,---,0.03,VWS V14.01,2013-01-16 10:19:00,
2013-01-16 05:24:00,37.3,36.3,30.07,North,350,0.0,2.0,96,0.01,,---,0.03,VWS V14.01,2013-01-16 10:24:00,
2013-01-16 05:29:00,37.3,36.3,30.07,North,350,0.0,0.0,96,0.01,,---,0.03,VWS V14.01,2013-01-16 10:29:00,
2013-01-16 05:30:00,37.3,36.3,30.07,North,350,0.0,2.0,96,0.01,,---,0.03,VWS V14.01,2013-01-16 10:30:00,
2013-01-16 05:34:00,37.3,36.3,30.07,North,350,0.0,0.0,96,0.01,,---,0.03,VWS V14.01,2013-01-16 10:34:00,
2013-01-16 05:39:00,37.3,36.3,30.07,North,350,0.0,1.0,96,0.02,,---,0.04,VWS V14.01,2013-01-16 10:39:00,
2013-01-16 05:44:00,37.2,36.2,30.07,North,350,0.0,1.0,96,0.02,,---,0.04,VWS V14.01,2013-01-16 10:44:00,
2013-01-16 05:49:00,37.3,36.3,30.08,North,350,0.0,2.0,96,0.02,,---,0.04,VWS V14.01,2013-01-16 10:49:00,
2013-01-16 05:54:00,37.3,36.3,30.07,North,350,0.0,2.0,96,0.02,,---,0.04,VWS V14.01,2013-01-16 10:54:00,
2013-01-16 06:00:00,37.2,36.2,30.07,ESE,112,1.0,2.0,96,0.02,,---,0.04,VWS V14.01,2013-01-16 11:00:00,
2013-01-16 06:02:00,37.3,36.3,30.08,ESE,112,0.0,1.0,96,0.03,,---,0.05,VWS V14.01,2013-01-16 11:02:00,
2013-01-16 06:07:00,37.2,36.2,30.08,ESE,112,0.0,1.0,96,0.04,,---,0.06,VWS V14.01,2013-01-16 11:07:00,
2013-01-16 06:12:00,37.1,36.1,30.08,ESE,112,0.0,1.0,96,0.04,,---,0.06,VWS V14.01,2013-01-16 11:12:00,
2013-01-16 06:17:00,37.1,36.1,30.08,ESE,112,0.0,1.0,96,0.05,,---,0.07,VWS V14.01,2013-01-16 11:17:00,
2013-01-16 06:22:00,37.1,36.1,30.08,ESE,112,0.0,1.0,96,0.05,,---,0.07,VWS V14.01,2013-01-16 11:22:00,
2013-01-16 06:27:00,37.1,36.1,30.08,ESE,112,0.0,1.0,96,0.06,,---,0.08,VWS V14.01,2013-01-16 11:27:00,
2013-01-16 06:30:00,37.1,36.1,30.08,ESE,112,0.0,1.0,96,0.06,,---,0.08,VWS V14.01,2013-01-16 11:30:00,
2013-01-16 06:33:00,37.1,36.1,30.07,ESE,112,0.0,0.0,96,0.06,,---,0.09,VWS V14.01,2013-01-16 11:33:00,
2013-01-16 06:38:00,37.2,36.2,30.07,ESE,112,0.0,0.0,96,0.06,,---,0.09,VWS V14.01,2013-01-16 11:38:00,
2013-01-16 06:43:00,37.2,36.2,30.07,ESE,112,0.0,0.0,96,0.07,,---,0.10,VWS V14.01,2013-01-16 11:43:00,
2013-01-16 06:48:00,37.2,36.2,30.07,ESE,112,0.0,0.0,96,0.07,,---,0.10,VWS V14.01,2013-01-16 11:48:00,
2013-01-16 06:53:00,37.2,36.2,30.07,ESE,112,0.0,0.0,96,0.08,,---,0.11,VWS V14.01,2013-01-16 11:53:00,
2013-01-16 06:58:00,37.2,36.2,30.08,ESE,112,0.0,0.0,96,0.09,,---,0.12,VWS V14.01,2013-01-16 11:58:00,
2013-01-16 07:00:00,37.2,36.2,30.08,ESE,112,0.0,0.0,96,0.09,,---,0.12,VWS V14.01,2013-01-16 12:00:00,
2013-01-16 07:03:00,37.3,36.3,30.08,ESE,112,0.0,0.0,96,0.08,,---,0.12,VWS V14.01,2013-01-16 12:03:00,
2013-01-16 07:08:00,37.2,36.2,30.08,ESE,112,0.0,0.0,96,0.09,,---,0.13,VWS V14.01,2013-01-16 12:08:00,
2013-01-16 07:13:00,37.3,36.3,30.08,ESE,112,0.0,0.0,96,0.10,,---,0.14,VWS V14.01,2013-01-16 12:13:00,
2013-01-16 07:18:00,37.2,36.2,30.08,ESE,112,0.0,0.0,96,0.10,,---,0.14,VWS V14.01,2013-01-16 12:18:00,
2013-01-16 07:23:00,37.3,36.3,30.08,ESE,112,0.0,0.0,96,0.11,,---,0.15,VWS V14.01,2013-01-16 12:23:00,
2013-01-16 07:28:00,37.3,36.3,30.08,ESE,112,0.0,0.0,96,0.08,,---,0.16,VWS V14.01,2013-01-16 12:28:00,
2013-01-16 07:30:00,37.3,36.3,30.08,ESE,112,0.0,0.0,96,0.11,,---,0.15,VWS V14.01,2013-01-16 12:30:00,
2013-01-16 07:33:00,37.3,36.3,30.08,ESE,112,0.0,0.0,96,0.08,,---,0.16,VWS V14.01,2013-01-16 12:33:00,
2013-01-16 07:38:00,37.3,36.3,30.08,ESE,112,0.0,0.0,96,0.09,,---,0.17,VWS V14.01,2013-01-16 12:38:00,
2013-01-16 07:43:00,37.3,36.3,30.08,ENE,71,0.0,1.0,96,0.09,,---,0.17,VWS V14.01,2013-01-16 12:43:00,
2013-01-16 07:48:00,37.3,36.3,30.08,NE,43,0.0,1.0,96,0.10,,---,0.18,VWS V14.01,2013-01-16 12:48:00,
2013-01-16 07:53:00,37.3,36.3,30.08,WNW,298,0.0,1.0,96,0.11,,---,0.19,VWS V14.01,2013-01-16 12:53:00,
2013-01-16 07:58:00,37.3,36.3,30.08,WNW,298,0.0,0.0,96,0.07,,---,0.19,VWS V14.01,2013-01-16 12:58:00,
2013-01-16 08:00:00,37.3,36.3,30.08,WNW,298,0.0,1.0,96,0.11,,---,0.19,VWS V14.01,2013-01-16 13:00:00,
2013-01-16 08:03:00,37.3,36.3,30.08,WNW,298,0.0,0.0,96,0.08,,---,0.20,VWS V14.01,2013-01-16 13:03:00,
2013-01-16 08:08:00,37.3,36.3,30.09,WNW,298,0.0,0.0,96,0.08,,---,0.20,VWS V14.01,2013-01-16 13:08:00,
2013-01-16 08:13:00,37.4,36.4,30.09,WNW,298,0.0,1.0,96,0.09,,---,0.21,VWS V14.01,2013-01-16 13:13:00,
2013-01-16 08:18:00,37.4,36.4,30.09,WNW,298,0.0,1.0,96,0.09,,---,0.21,VWS V14.01,2013-01-16 13:18:00,
2013-01-16 08:23:00,37.5,36.5,30.09,WNW,298,0.0,1.0,96,0.10,,---,0.22,VWS V14.01,2013-01-16 13:23:00,
2013-01-16 08:28:00,37.6,36.6,30.09,WNW,298,0.0,0.0,96,0.07,,---,0.22,VWS V14.01,2013-01-16 13:28:00,
2013-01-16 08:30:00,37.6,36.6,30.09,WNW,298,0.0,1.0,96,0.10,,---,0.22,VWS V14.01,2013-01-16 13:30:00,
2013-01-16 08:33:00,37.6,36.6,30.10,WNW,298,0.0,1.0,96,0.08,,---,0.23,VWS V14.01,2013-01-16 13:33:00,
2013-01-16 08:38:00,37.6,36.6,30.10,WNW,298,0.0,1.0,96,0.09,,---,0.24,VWS V14.01,2013-01-16 13:38:00,
2013-01-16 08:43:00,37.7,36.7,30.10,WNW,298,0.0,1.0,96,0.09,,---,0.24,VWS V14.01,2013-01-16 13:43:00,
2013-01-16 08:48:00,37.7,36.7,30.10,WNW,298,0.0,1.0,96,0.10,,---,0.25,VWS V14.01,2013-01-16 13:48:00,
2013-01-16 08:53:00,37.7,36.7,30.10,WNW,298,0.0,1.0,96,0.10,,---,0.25,VWS V14.01,2013-01-16 13:53:00,
2013-01-16 08:58:00,37.7,36.7,30.10,WNW,298,0.0,0.0,96,0.07,,---,0.26,VWS V14.01,2013-01-16 13:58:00,
2013-01-16 09:00:00,37.7,36.7,30.10,WNW,298,0.0,1.0,96,0.11,,---,0.26,VWS V14.01,2013-01-16 14:00:00,
2013-01-16 09:03:00,37.8,36.8,30.11,WNW,298,0.0,0.0,96,0.07,,---,0.26,VWS V14.01,2013-01-16 14:03:00,
2013-01-16 09:08:00,37.8,36.8,30.10,WNW,298,0.0,0.0,96,0.08,,---,0.27,VWS V14.01,2013-01-16 14:08:00,
2013-01-16 09:13:00,37.8,36.8,30.10,WNW,298,0.0,0.0,96,0.09,,---,0.28,VWS V14.01,2013-01-16 14:13:00,
2013-01-16 09:18:00,37.8,36.8,30.10,WNW,298,0.0,0.0,96,0.09,,---,0.28,VWS V14.01,2013-01-16 14:18:00,
2013-01-16 09:23:00,37.9,36.9,30.10,WNW,298,0.0,0.0,96,0.10,,---,0.29,VWS V14.01,2013-01-16 14:23:00,
2013-01-16 09:28:00,37.9,36.9,30.10,WNW,298,0.0,1.0,96,0.07,,---,0.29,VWS V14.01,2013-01-16 14:28:00,
2013-01-16 09:30:00,37.9,36.9,30.10,WNW,298,0.0,0.0,96,0.10,,---,0.29,VWS V14.01,2013-01-16 14:30:00,
2013-01-16 09:33:00,38.0,37.0,30.10,WNW,298,0.0,1.0,96,0.08,,---,0.30,VWS V14.01,2013-01-16 14:33:00,
2013-01-16 09:38:00,38.0,37.0,30.10,WNW,298,0.0,1.0,96,0.08,,---,0.30,VWS V14.01,2013-01-16 14:38:00,
2013-01-16 09:43:00,38.1,37.1,30.10,WNW,298,0.0,1.0,96,0.09,,---,0.31,VWS V14.01,2013-01-16 14:43:00,
2013-01-16 09:48:00,38.2,37.2,30.09,WNW,298,0.0,1.0,96,0.09,,---,0.31,VWS V14.01,2013-01-16 14:48:00,
2013-01-16 09:53:00,38.2,37.2,30.10,WNW,298,0.0,1.0,96,0.10,,---,0.32,VWS V14.01,2013-01-16 14:53:00,
2013-01-16 09:58:00,38.2,37.2,30.10,WNW,298,0.0,0.0,96,0.06,,---,0.32,VWS V14.01,2013-01-16 14:58:00,
2013-01-16 10:00:00,38.2,37.2,30.10,WNW,298,0.0,1.0,96,0.10,,---,0.32,VWS V14.01,2013-01-16 15:00:00,
2013-01-16 10:03:00,38.1,37.1,30.10,WNW,298,0.0,1.0,96,0.06,,---,0.32,VWS V14.01,2013-01-16 15:03:00,
2013-01-16 10:08:00,38.1,37.1,30.10,WNW,298,0.0,2.0,96,0.07,,---,0.33,VWS V14.01,2013-01-16 15:08:00,
2013-01-16 10:13:00,38.2,37.2,30.11,WNW,298,0.0,2.0,96,0.08,,---,0.34,VWS V14.01,2013-01-16 15:13:00,
2013-01-16 10:18:00,38.3,37.3,30.11,WNW,298,0.0,2.0,96,0.08,,---,0.34,VWS V14.01,2013-01-16 15:18:00,
2013-01-16 10:23:00,38.3,37.3,30.11,WNW,298,0.0,2.0,96,0.08,,---,0.34,VWS V14.01,2013-01-16 15:23:00,
2013-01-16 10:29:00,38.3,37.3,30.11,WNW,298,0.0,0.0,96,0.06,,---,0.35,VWS V14.01,2013-01-16 15:29:00,
2013-01-16 10:30:00,38.3,37.3,30.11,WNW,298,0.0,2.0,96,0.09,,---,0.35,VWS V14.01,2013-01-16 15:30:00,
2013-01-16 10:34:00,38.4,37.4,30.11,WNW,298,0.0,1.0,96,0.06,,---,0.35,VWS V14.01,2013-01-16 15:34:00,
2013-01-16 10:39:00,38.4,37.4,30.11,WNW,298,0.0,1.0,96,0.07,,---,0.36,VWS V14.01,2013-01-16 15:39:00,
2013-01-16 10:44:00,38.3,37.3,30.12,WNW,298,0.0,1.0,96,0.07,,---,0.36,VWS V14.01,2013-01-16 15:44:00,
2013-01-16 10:49:00,38.3,37.3,30.11,WNW,298,0.0,1.0,96,0.08,,---,0.37,VWS V14.01,2013-01-16 15:49:00,
2013-01-16 10:54:00,38.3,37.3,30.11,WNW,298,1.0,1.0,96,0.08,,---,0.37,VWS V14.01,2013-01-16 15:54:00,
2013-01-16 10:59:00,38.3,37.3,30.11,WNW,298,0.0,0.0,96,0.06,,---,0.38,VWS V14.01,2013-01-16 15:59:00,
2013-01-16 11:00:00,38.3,37.3,30.11,WNW,298,0.0,1.0,96,0.09,,---,0.38,VWS V14.01,2013-01-16 16:00:00,
2013-01-16 11:04:00,38.4,37.4,30.13,WNW,298,2.0,3.0,96,0.06,,---,0.38,VWS V14.01,2013-01-16 16:04:00,
2013-01-16 11:09:00,38.4,37.4,30.11,West,274,2.0,3.0,96,0.07,,---,0.39,VWS V14.01,2013-01-16 16:09:00,
2013-01-16 11:14:00,38.5,37.5,30.09,South,178,0.0,3.0,96,0.08,,---,0.40,VWS V14.01,2013-01-16 16:14:00,
2013-01-16 11:19:00,38.5,37.5,30.10,South,172,0.0,3.0,96,0.08,,---,0.40,VWS V14.01,2013-01-16 16:19:00,
2013-01-16 11:24:00,38.6,37.6,30.10,South,172,0.0,3.0,96,0.09,,---,0.41,VWS V14.01,2013-01-16 16:24:00,
2013-01-16 11:29:00,38.6,37.6,30.10,South,172,0.0,0.0,96,0.06,,---,0.41,VWS V14.01,2013-01-16 16:29:00,
2013-01-16 11:30:00,38.6,37.6,30.10,South,172,0.0,3.0,96,0.09,,---,0.41,VWS V14.01,2013-01-16 16:30:00,
2013-01-16 11:34:00,38.8,37.8,30.10,South,172,0.0,0.0,96,0.07,,---,0.42,VWS V14.01,2013-01-16 16:34:00,
2013-01-16 11:39:00,38.8,37.8,30.10,South,172,0.0,2.0,96,0.07,,---,0.42,VWS V14.01,2013-01-16 16:39:00,
2013-01-16 11:44:00,39.0,38.0,30.09,South,172,0.0,2.0,96,0.08,,---,0.43,VWS V14.01,2013-01-16 16:44:00,
2013-01-16 11:49:00,39.1,38.1,30.09,South,172,0.0,2.0,96,0.09,,---,0.44,VWS V14.01,2013-01-16 16:49:00,
2013-01-16 11:54:00,39.2,38.2,30.08,South,172,0.0,2.0,96,0.09,,---,0.44,VWS V14.01,2013-01-16 16:54:00,
2013-01-16 11:59:00,39.2,38.2,30.08,South,172,0.0,0.0,96,0.07,,---,0.45,VWS V14.01,2013-01-16 16:59:00,
2013-01-16 12:00:00,39.2,38.2,30.08,South,172,0.0,2.0,96,0.09,,---,0.44,VWS V14.01,2013-01-16 17:00:00,
2013-01-16 12:04:00,39.2,38.2,30.08,South,172,0.0,1.0,96,0.07,,---,0.45,VWS V14.01,2013-01-16 17:04:00,
2013-01-16 12:09:00,39.1,38.1,30.07,South,172,0.0,1.0,96,0.08,,---,0.46,VWS V14.01,2013-01-16 17:09:00,
2013-01-16 12:14:00,39.3,38.3,30.07,South,172,0.0,1.0,96,0.08,,---,0.46,VWS V14.01,2013-01-16 17:14:00,
2013-01-16 12:19:00,39.4,38.4,30.07,South,172,0.0,1.0,96,0.09,,---,0.47,VWS V14.01,2013-01-16 17:19:00,
2013-01-16 12:24:00,39.4,38.4,30.06,South,172,0.0,1.0,96,0.09,,---,0.47,VWS V14.01,2013-01-16 17:24:00,
2013-01-16 12:29:00,39.5,38.5,30.05,South,172,0.0,1.0,96,0.07,,---,0.48,VWS V14.01,2013-01-16 17:29:00,
2013-01-16 12:30:00,39.4,38.4,30.05,South,172,1.0,2.0,96,0.10,,---,0.48,VWS V14.01,2013-01-16 17:30:00,
2013-01-16 12:34:00,39.7,38.7,30.05,SSE,166,0.0,3.0,96,0.07,,---,0.48,VWS V14.01,2013-01-16 17:34:00,
2013-01-16 12:40:00,40.0,39.0,30.03,SSE,159,2.0,6.0,96,0.08,,---,0.49,VWS V14.01,2013-01-16 17:40:00,
2013-01-16 12:45:00,40.0,39.0,30.02,SSE,157,0.0,6.0,96,0.09,,---,0.50,VWS V14.01,2013-01-16 17:45:00,
2013-01-16 12:50:00,40.0,39.0,30.02,SE,140,2.0,6.0,96,0.09,,---,0.50,VWS V14.01,2013-01-16 17:50:00,
2013-01-16 12:55:00,40.1,39.0,30.02,ESE,110,0.0,6.0,96,0.10,,---,0.51,VWS V14.01,2013-01-16 17:55:00,
2013-01-16 13:00:00,40.1,39.0,30.02,SE,139,4.0,4.0,96,0.07,,---,0.51,VWS V14.01,2013-01-16 18:00:00,
2013-01-16 13:05:00,40.1,39.0,30.02,ESE,115,1.0,4.0,96,0.08,,---,0.52,VWS V14.01,2013-01-16 18:05:00,
2013-01-16 13:10:00,40.3,39.2,30.02,South,175,3.0,6.0,96,0.08,,---,0.52,VWS V14.01,2013-01-16 18:10:00,
2013-01-16 13:15:00,40.5,39.5,30.01,South,175,0.0,6.0,96,0.09,,---,0.53,VWS V14.01,2013-01-16 18:15:00,
2013-01-16 13:20:00,40.7,39.7,30.01,SE,142,2.0,6.0,96,0.09,,---,0.53,VWS V14.01,2013-01-16 18:20:00,
2013-01-16 13:25:00,40.8,39.8,30.00,SSE,157,2.0,6.0,96,0.10,,---,0.54,VWS V14.01,2013-01-16 18:25:00,
2013-01-16 13:30:00,40.8,39.8,30.00,South,177,1.0,6.0,96,0.06,,---,0.54,VWS V14.01,2013-01-16 18:30:00,
2013-01-16 13:35:00,40.9,39.8,30.00,SSE,156,1.0,6.0,96,0.07,,---,0.55,VWS V14.01,2013-01-16 18:35:00,
2013-01-16 13:40:00,41.0,40.0,30.00,SE,139,2.0,7.0,96,0.07,,---,0.55,VWS V14.01,2013-01-16 18:40:00,
2013-01-16 13:45:00,41.1,40.0,29.98,South,172,0.0,7.0,96,0.08,,---,0.56,VWS V14.01,2013-01-16 18:45:00,
2013-01-16 13:50:00,41.3,40.2,29.98,SSE,154,0.0,7.0,96,0.08,,---,0.56,VWS V14.01,2013-01-16 18:50:00,
2013-01-16 13:55:00,41.4,40.3,29.97,East,85,1.0,7.0,96,0.08,,---,0.56,VWS V14.01,2013-01-16 18:55:00,
2013-01-16 14:00:00,41.6,40.5,29.96,South,175,0.0,3.0,96,0.06,,---,0.57,VWS V14.01,2013-01-16 19:00:00,
2013-01-16 14:05:00,41.8,40.8,29.97,SE,141,3.0,4.0,96,0.06,,---,0.57,VWS V14.01,2013-01-16 19:05:00,
2013-01-16 14:10:00,42.0,40.9,29.98,WSW,247,6.0,6.0,96,0.07,,---,0.58,VWS V14.01,2013-01-16 19:10:00,
2013-01-16 14:15:00,42.2,41.1,29.97,ESE,105,3.0,9.0,96,0.07,,---,0.58,VWS V14.01,2013-01-16 19:15:00,
2013-01-16 14:20:00,42.4,41.3,29.97,SSW,213,0.0,9.0,96,0.07,,---,0.58,VWS V14.01,2013-01-16 19:20:00,
2013-01-16 14:25:00,42.5,41.4,29.97,South,182,3.0,9.0,96,0.08,,---,0.59,VWS V14.01,2013-01-16 19:25:00,
2013-01-16 14:30:00,42.7,41.6,29.97,SSE,159,3.0,4.0,96,0.05,,---,0.59,VWS V14.01,2013-01-16 19:30:00,
2013-01-16 14:35:00,42.7,41.6,29.98,SSW,195,2.0,5.0,96,0.06,,---,0.60,VWS V14.01,2013-01-16 19:35:00,
2013-01-16 14:40:00,42.9,41.8,29.98,South,191,0.0,5.0,96,0.06,,---,0.60,VWS V14.01,2013-01-16 19:40:00,
2013-01-16 14:45:00,43.1,42.0,29.98,South,191,2.0,6.0,96,0.06,,---,0.60,VWS V14.01,2013-01-16 19:45:00,
2013-01-16 14:50:00,43.2,42.1,29.98,SSW,194,5.0,9.0,96,0.07,,---,0.61,VWS V14.01,2013-01-16 19:50:00,
2013-01-16 14:56:00,43.3,42.2,29.98,South,186,1.0,9.0,96,0.07,,---,0.61,VWS V14.01,2013-01-16 19:56:00,
2013-01-16 15:00:00,43.3,42.2,29.99,SSW,198,2.0,9.0,96,0.08,,---,0.62,VWS V14.01,2013-01-16 20:00:00,
2013-01-16 15:01:00,43.4,42.3,29.99,SW,224,0.0,4.0,96,0.05,,---,0.62,VWS V14.01,2013-01-16 20:01:00,
2013-01-16 15:06:00,43.6,42.5,30.00,SSW,208,0.0,4.0,96,0.05,,---,0.62,VWS V14.01,2013-01-16 20:06:00,
2013-01-16 15:11:00,43.8,42.7,30.00,SSW,202,0.0,4.0,96,0.05,,---,0.62,VWS V14.01,2013-01-16 20:11:00,
2013-01-16 15:16:00,44.0,42.9,30.01,SSW,212,0.0,4.0,96,0.06,,---,0.63,VWS V14.01,2013-01-16 20:16:00,
2013-01-16 15:21:00,44.1,43.0,30.01,SSW,212,0.0,4.0,96,0.06,,---,0.63,VWS V14.01,2013-01-16 20:21:00,
2013-01-16 15:26:00,44.1,43.0,30.01,SW,222,2.0,4.0,96,0.06,,---,0.63,VWS V14.01,2013-01-16 20:26:00,
2013-01-16 15:30:00,44.1,43.0,30.01,South,180,1.0,4.0,96,0.07,,---,0.64,VWS V14.01,2013-01-16 20:30:00,
2013-01-16 15:31:00,44.1,43.0,30.00,SE,144,2.0,4.0,96,0.05,,---,0.64,VWS V14.01,2013-01-16 20:31:00,
2013-01-16 15:36:00,44.1,43.0,30.00,SSW,213,0.0,9.0,96,0.05,,---,0.64,VWS V14.01,2013-01-16 20:36:00,
2013-01-16 15:41:00,44.1,43.0,30.00,South,187,0.0,9.0,96,0.05,,---,0.64,VWS V14.01,2013-01-16 20:41:00,
2013-01-16 15:46:00,44.1,43.0,29.99,SE,144,0.0,9.0,96,0.05,,---,0.64,VWS V14.01,2013-01-16 20:46:00,
2013-01-16 15:51:00,44.2,43.1,30.00,SSW,212,0.0,9.0,96,0.06,,---,0.65,VWS V14.01,2013-01-16 20:51:00,
2013-01-16 15:56:00,44.2,43.1,30.00,WSW,239,0.0,9.0,96,0.06,,---,0.65,VWS V14.01,2013-01-16 20:56:00,
2013-01-16 16:00:00,44.2,43.1,30.00,WSW,239,0.0,9.0,96,0.06,,---,0.65,VWS V14.01,2013-01-16 21:00:00,
2013-01-16 16:01:00,44.2,43.1,30.00,WSW,239,0.0,2.0,96,0.03,,---,0.65,VWS V14.01,2013-01-16 21:01:00,
2013-01-16 16:06:00,44.3,43.2,30.01,SSW,213,4.0,4.0,96,0.04,,---,0.66,VWS V14.01,2013-01-16 21:06:00,
2013-01-16 16:11:00,44.4,43.3,30.01,WSW,239,0.0,4.0,96,0.04,,---,0.66,VWS V14.01,2013-01-16 21:11:00,
2013-01-16 16:16:00,44.5,43.4,30.02,WSW,239,0.0,4.0,96,0.04,,---,0.66,VWS V14.01,2013-01-16 21:16:00,
2013-01-16 16:21:00,44.5,43.4,30.02,SW,225,2.0,4.0,96,0.04,,---,0.66,VWS V14.01,2013-01-16 21:21:00,
2013-01-16 16:26:00,44.5,43.4,30.03,WSW,239,1.0,4.0,96,0.04,,---,0.66,VWS V14.01,2013-01-16 21:26:00,
2013-01-16 16:30:00,44.5,43.4,30.03,WSW,239,0.0,4.0,96,0.05,,---,0.67,VWS V14.01,2013-01-16 21:30:00,
2013-01-16 16:31:00,44.5,43.4,30.03,SW,220,1.0,3.0,96,0.03,,---,0.67,VWS V14.01,2013-01-16 21:31:00,
2013-01-16 16:36:00,44.5,43.4,30.01,SW,231,0.0,4.0,96,0.03,,---,0.67,VWS V14.01,2013-01-16 21:36:00,
2013-01-16 16:41:00,44.5,43.4,30.01,SSW,212,3.0,4.0,96,0.03,,---,0.67,VWS V14.01,2013-01-16 21:41:00,
2013-01-16 16:46:00,44.6,43.5,30.00,SW,221,1.0,4.0,96,0.03,,---,0.67,VWS V14.01,2013-01-16 21:46:00,
2013-01-16 16:51:00,44.6,43.5,30.01,SW,231,1.0,6.0,96,0.04,,---,0.68,VWS V14.01,2013-01-16 21:51:00,
2013-01-16 16:56:00,44.6,43.5,30.01,West,265,0.0,6.0,96,0.04,,---,0.68,VWS V14.01,2013-01-16 21:56:00,
2013-01-16 17:00:00,44.6,43.5,30.01,West,262,0.0,6.0,96,0.04,,---,0.68,VWS V14.01,2013-01-16 22:00:00,
2013-01-16 17:01:00,44.6,43.5,30.01,SW,228,2.0,3.0,96,0.03,,---,0.68,VWS V14.01,2013-01-16 22:01:00,
2013-01-16 17:06:00,44.6,43.5,30.01,South,181,0.0,4.0,96,0.03,,---,0.68,VWS V14.01,2013-01-16 22:06:00,
2013-01-16 17:12:00,44.6,43.5,30.01,SW,219,0.0,4.0,96,0.03,,---,0.68,VWS V14.01,2013-01-16 22:12:00,
2013-01-16 17:17:00,44.6,43.5,30.01,West,261,0.0,4.0,96,0.03,,---,0.68,VWS V14.01,2013-01-16 22:17:00,
2013-01-16 17:22:00,44.6,43.5,30.00,SSW,203,0.0,4.0,96,0.03,,---,0.68,VWS V14.01,2013-01-16 22:22:00,
2013-01-16 17:27:00,44.6,43.5,30.00,SSE,149,1.0,6.0,96,0.03,,---,0.68,VWS V14.01,2013-01-16 22:27:00,
2013-01-16 17:30:00,44.6,43.5,30.00,South,172,2.0,6.0,96,0.03,,---,0.68,VWS V14.01,2013-01-16 22:30:00,
2013-01-16 17:32:00,44.6,43.5,29.99,SSW,207,0.0,3.0,96,0.01,,---,0.68,VWS V14.01,2013-01-16 22:32:00,
2013-01-16 17:37:00,44.6,43.5,30.00,South,184,2.0,4.0,96,0.01,,---,0.68,VWS V14.01,2013-01-16 22:37:00,
2013-01-16 17:42:00,44.6,43.5,29.99,South,183,1.0,6.0,96,0.01,,---,0.68,VWS V14.01,2013-01-16 22:42:00,
2013-01-16 17:47:00,44.6,43.5,29.99,WSW,254,0.0,6.0,96,0.01,,---,0.68,VWS V14.01,2013-01-16 22:47:00,
2013-01-16 17:52:00,44.6,43.5,29.99,SSW,213,0.0,6.0,96,0.01,,---,0.68,VWS V14.01,2013-01-16 22:52:00,
2013-01-16 17:57:00,44.6,43.5,29.99,SW,219,1.0,6.0,96,0.01,,---,0.68,VWS V14.01,2013-01-16 22:57:00,
2013-01-16 18:00:00,44.6,43.5,29.99,SSE,150,0.0,6.0,96,0.01,,---,0.68,VWS V14.01,2013-01-16 23:00:00,
2013-01-16 18:02:00,44.7,43.6,30.00,WSW,252,4.0,6.0,96,0.00,,---,0.68,VWS V14.01,2013-01-16 23:02:00,
2013-01-16 18:07:00,44.7,43.6,29.99,SW,218,0.0,6.0,96,0.00,,---,0.68,VWS V14.01,2013-01-16 23:07:00,
2013-01-16 18:12:00,44.7,43.6,29.99,SSW,202,0.0,6.0,96,0.00,,---,0.68,VWS V14.01,2013-01-16 23:12:00,
2013-01-16 18:17:00,44.7,43.6,30.00,South,179,0.0,6.0,96,0.00,,---,0.68,VWS V14.01,2013-01-16 23:17:00,
2013-01-16 18:22:00,44.8,43.7,30.00,WSW,238,0.0,6.0,96,0.00,,---,0.68,VWS V14.01,2013-01-16 23:22:00,
2013-01-16 18:27:00,44.8,43.7,29.99,South,182,0.0,6.0,96,0.00,,---,0.68,VWS V14.01,2013-01-16 23:27:00,
2013-01-16 18:30:00,44.8,43.7,29.99,SSE,163,0.0,6.0,96,0.00,,---,0.68,VWS V14.01,2013-01-16 23:30:00,
2013-01-16 18:32:00,44.9,43.8,30.00,SW,215,2.0,5.0,96,0.00,,---,0.68,VWS V14.01,2013-01-16 23:32:00,
2013-01-16 18:37:00,44.9,43.8,30.01,WNW,286,0.0,5.0,96,0.00,,---,0.68,VWS V14.01,2013-01-16 23:37:00,
2013-01-16 18:42:00,44.9,43.8,30.01,WNW,286,0.0,5.0,96,0.00,,---,0.68,VWS V14.01,2013-01-16 23:42:00,
2013-01-16 18:47:00,45.0,43.9,30.01,WNW,286,0.0,5.0,96,0.00,,---,0.68,VWS V14.01,2013-01-16 23:47:00,
2013-01-16 18:52:00,45.0,43.9,30.01,WSW,252,0.0,5.0,96,0.00,,---,0.68,VWS V14.01,2013-01-16 23:52:00,
2013-01-16 18:57:00,45.0,43.9,30.02,West,278,0.0,5.0,96,0.00,,---,0.68,VWS V14.01,2013-01-16 23:57:00,
2013-01-16 19:00:00,45.0,43.9,30.02,West,278,0.0,5.0,96,0.00,,---,0.68,VWS V14.01,2013-01-17 00:00:00,
2013-01-16 19:02:00,45.1,44.0,30.03,West,278,0.0,2.0,96,0.00,,---,0.68,VWS V14.01,2013-01-17 00:02:00,
2013-01-16 19:07:00,45.1,44.0,30.03,West,278,1.0,3.0,96,0.00,,---,0.68,VWS V14.01,2013-01-17 00:07:00,
2013-01-16 19:12:00,45.1,44.0,30.02,West,279,0.0,3.0,96,0.00,,---,0.68,VWS V14.01,2013-01-17 00:12:00,
2013-01-16 19:17:00,45.1,44.0,30.02,SW,221,1.0,3.0,96,0.00,,---,0.68,VWS V14.01,2013-01-17 00:17:00,
2013-01-16 19:22:00,45.1,44.0,30.02,SW,221,0.0,3.0,96,0.00,,---,0.68,VWS V14.01,2013-01-17 00:22:00,
2013-01-16 19:27:00,45.1,44.0,30.02,SW,221,1.0,3.0,96,0.00,,---,0.68,VWS V14.01,2013-01-17 00:27:00,
2013-01-16 19:30:00,45.1,44.0,30.02,SW,223,0.0,3.0,96,0.00,,---,0.68,VWS V14.01,2013-01-17 00:30:00,
2013-01-16 19:32:00,45.1,44.0,30.03,SW,223,0.0,1.0,96,0.00,,---,0.68,VWS V14.01,2013-01-17 00:32:00,
2013-01-16 19:37:00,45.2,44.1,30.03,SW,223,0.0,1.0,96,0.00,,---,0.68,VWS V14.01,2013-01-17 00:37:00,
2013-01-16 19:42:00,45.2,44.1,30.03,SW,223,0.0,1.0,96,0.00,,---,0.68,VWS V14.01,2013-01-17 00:42:00,
2013-01-16 19:47:00,45.2,44.1,30.03,SW,223,0.0,1.0,96,0.00,,---,0.68,VWS V14.01,2013-01-17 00:47:00,
2013-01-16 19:52:00,45.2,44.1,30.03,SW,223,0.0,1.0,96,0.00,,---,0.68,VWS V14.01,2013-01-17 00:52:00,
2013-01-16 19:57:00,45.2,44.1,30.03,SW,223,0.0,1.0,96,0.00,,---,0.68,VWS V14.01,2013-01-17 00:57:00,
2013-01-16 20:00:00,45.2,44.1,30.03,SW,223,0.0,1.0,96,0.00,,---,0.68,VWS V14.01,2013-01-17 01:00:00,
2013-01-16 20:02:00,45.2,44.1,30.03,SW,223,0.0,0.0,96,0.00,,---,0.68,VWS V14.01,2013-01-17 01:02:00,
2013-01-16 20:07:00,45.2,44.1,30.03,SW,223,0.0,0.0,96,0.00,,---,0.68,VWS V14.01,2013-01-17 01:07:00,
2013-01-16 20:12:00,45.2,44.1,30.03,SW,223,0.0,1.0,96,0.00,,---,0.68,VWS V14.01,2013-01-17 01:12:00,
2013-01-16 20:17:00,45.2,44.1,30.03,SW,223,0.0,1.0,96,0.00,,---,0.68,VWS V14.01,2013-01-17 01:17:00,
2013-01-16 20:22:00,45.2,44.1,30.04,SW,223,0.0,1.0,96,0.00,,---,0.68,VWS V14.01,2013-01-17 01:22:00,
2013-01-16 20:27:00,45.2,44.1,30.04,SW,223,0.0,1.0,96,0.00,,---,0.68,VWS V14.01,2013-01-17 01:27:00,
2013-01-16 20:30:00,45.2,44.1,30.04,SW,223,0.0,1.0,96,0.00,,---,0.68,VWS V14.01,2013-01-17 01:30:00,
2013-01-16 20:32:00,45.2,44.1,30.04,SW,223,0.0,0.0,96,0.00,,---,0.68,VWS V14.01,2013-01-17 01:32:00,
2013-01-16 20:37:00,45.2,44.1,30.03,SW,223,0.0,0.0,96,0.00,,---,0.68,VWS V14.01,2013-01-17 01:37:00,
2013-01-16 20:42:00,45.2,44.1,30.03,SW,223,0.0,0.0,96,0.00,,---,0.68,VWS V14.01,2013-01-17 01:42:00,
2013-01-16 20:47:00,45.2,44.1,30.04,SW,223,0.0,0.0,96,0.00,,---,0.68,VWS V14.01,2013-01-17 01:47:00,
2013-01-16 20:53:00,45.3,44.2,30.04,SW,223,0.0,0.0,96,0.00,,---,0.68,VWS V14.01,2013-01-17 01:53:00,
2013-01-16 20:57:00,45.3,44.2,30.04,SW,223,0.0,0.0,96,0.00,,---,0.68,VWS V14.01,2013-01-17 01:57:00,
2013-01-16 21:00:00,45.3,44.2,30.04,SW,223,0.0,0.0,96,0.00,,---,0.68,VWS V14.01,2013-01-17 02:00:00,
2013-01-16 21:02:00,45.3,44.2,30.05,SW,223,0.0,0.0,96,0.00,,---,0.68,VWS V14.01,2013-01-17 02:02:00,
2013-01-16 21:08:00,45.3,44.2,30.05,SW,223,0.0,1.0,96,0.00,,---,0.68,VWS V14.01,2013-01-17 02:08:00,
2013-01-16 21:13:00,45.3,44.2,30.03,SW,223,0.0,1.0,96,0.00,,---,0.68,VWS V14.01,2013-01-17 02:13:00,
2013-01-16 21:18:00,45.3,44.2,30.03,SW,223,0.0,1.0,96,0.00,,---,0.68,VWS V14.01,2013-01-17 02:18:00,
2013-01-16 21:23:00,45.3,44.2,30.04,SW,223,0.0,1.0,96,0.00,,---,0.68,VWS V14.01,2013-01-17 02:23:00,
2013-01-16 21:28:00,45.3,44.2,30.04,SW,223,0.0,1.0,96,0.00,,---,0.68,VWS V14.01,2013-01-17 02:28:00,
2013-01-16 21:30:00,45.3,44.2,30.04,SW,223,0.0,1.0,96,0.00,,---,0.68,VWS V14.01,2013-01-17 02:30:00,
2013-01-16 21:33:00,45.3,44.2,30.04,SW,223,0.0,0.0,96,0.00,,---,0.68,VWS V14.01,2013-01-17 02:33:00,
2013-01-16 21:38:00,45.3,44.2,30.04,SW,223,0.0,0.0,96,0.00,,---,0.68,VWS V14.01,2013-01-17 02:38:00,
2013-01-16 21:43:00,45.3,44.2,30.03,SW,223,0.0,1.0,96,0.00,,---,0.68,VWS V14.01,2013-01-17 02:43:00,
2013-01-16 21:48:00,45.3,44.2,30.04,SW,223,0.0,1.0,96,0.00,,---,0.68,VWS V14.01,2013-01-17 02:48:00,
2013-01-16 21:53:00,45.3,44.2,30.03,SW,223,0.0,1.0,96,0.00,,---,0.68,VWS V14.01,2013-01-17 02:53:00,
2013-01-16 21:58:00,45.3,44.2,30.02,SW,223,0.0,1.0,96,0.00,,---,0.68,VWS V14.01,2013-01-17 02:58:00,
2013-01-16 22:00:00,45.3,44.2,30.02,SW,223,0.0,1.0,96,0.00,,---,0.68,VWS V14.01,2013-01-17 03:00:00,
2013-01-16 22:03:00,45.3,44.2,30.02,SW,223,0.0,1.0,96,0.00,,---,0.68,VWS V14.01,2013-01-17 03:03:00,
2013-01-16 22:08:00,45.3,44.2,30.02,SW,223,0.0,1.0,96,0.01,,---,0.69,VWS V14.01,2013-01-17 03:08:00,
2013-01-16 22:13:00,45.3,44.2,30.02,South,181,0.0,2.0,96,0.01,,---,0.69,VWS V14.01,2013-01-17 03:13:00,
2013-01-16 22:18:00,45.3,44.2,30.02,South,181,0.0,2.0,96,0.01,,---,0.69,VWS V14.01,2013-01-17 03:18:00,
2013-01-16 22:23:00,45.3,44.2,30.02,South,181,0.0,2.0,96,0.01,,---,0.69,VWS V14.01,2013-01-17 03:23:00,
2013-01-16 22:28:00,45.3,44.2,30.02,South,181,0.0,0.0,96,0.01,,---,0.69,VWS V14.01,2013-01-17 03:28:00,
2013-01-16 22:30:00,45.3,44.2,30.02,South,181,0.0,2.0,96,0.01,,---,0.69,VWS V14.01,2013-01-17 03:30:00,
2013-01-16 22:33:00,45.4,44.3,30.01,South,181,0.0,0.0,96,0.01,,---,0.69,VWS V14.01,2013-01-17 03:33:00,
2013-01-16 22:38:00,45.4,44.3,30.01,South,181,0.0,0.0,96,0.01,,---,0.69,VWS V14.01,2013-01-17 03:38:00,
2013-01-16 22:43:00,45.4,44.3,30.01,South,181,0.0,2.0,96,0.01,,---,0.69,VWS V14.01,2013-01-17 03:43:00,
2013-01-16 22:48:00,45.4,44.3,30.01,SSE,151,0.0,3.0,96,0.01,,---,0.69,VWS V14.01,2013-01-17 03:48:00,
2013-01-16 22:53:00,45.4,44.3,30.01,SSE,151,0.0,3.0,96,0.01,,---,0.69,VWS V14.01,2013-01-17 03:53:00,
2013-01-16 22:58:00,45.4,44.3,30.01,SSE,151,0.0,0.0,96,0.01,,---,0.69,VWS V14.01,2013-01-17 03:58:00,
2013-01-16 23:00:00,45.4,44.3,30.01,SSE,151,0.0,3.0,96,0.01,,---,0.69,VWS V14.01,2013-01-17 04:00:00,
2013-01-16 23:03:00,45.4,44.3,30.00,SSE,151,0.0,0.0,96,0.01,,---,0.69,VWS V14.01,2013-01-17 04:03:00,
2013-01-16 23:08:00,45.4,44.3,30.00,SSE,151,0.0,0.0,96,0.01,,---,0.69,VWS V14.01,2013-01-17 04:08:00,
2013-01-16 23:13:00,45.4,44.3,30.01,SSE,151,0.0,0.0,96,0.01,,---,0.69,VWS V14.01,2013-01-17 04:13:00,
2013-01-16 23:18:00,45.4,44.3,30.01,SSE,151,0.0,0.0,96,0.01,,---,0.69,VWS V14.01,2013-01-17 04:18:00,
2013-01-16 23:23:00,45.4,44.3,30.01,SSE,151,0.0,0.0,96,0.01,,---,0.69,VWS V14.01,2013-01-17 04:23:00,
2013-01-16 23:28:00,45.4,44.3,30.01,SSE,151,0.0,0.0,96,0.00,,---,0.69,VWS V14.01,2013-01-17 04:28:00,
2013-01-16 23:30:00,45.4,44.3,30.01,SSE,151,0.0,0.0,96,0.01,,---,0.69,VWS V14.01,2013-01-17 04:30:00,
2013-01-16 23:34:00,45.5,44.4,30.01,SSE,151,0.0,1.0,96,0.00,,---,0.69,VWS V14.01,2013-01-17 04:34:00,
2013-01-16 23:39:00,45.5,44.4,30.01,SSE,151,0.0,1.0,96,0.00,,---,0.69,VWS V14.01,2013-01-17 04:39:00,
2013-01-16 23:44:00,45.4,44.3,30.01,SSE,151,0.0,1.0,96,0.00,,---,0.69,VWS V14.01,2013-01-17 04:44:00,
2013-01-16 23:49:00,45.4,44.3,30.01,SSE,151,0.0,1.0,96,0.00,,---,0.69,VWS V14.01,2013-01-17 04:49:00,
2013-01-16 23:54:00,45.4,44.3,30.01,SSE,151,0.0,1.0,96,0.00,,---,0.69,VWS V14.01,2013-01-17 04:54:00,
2013-01-16 23:59:00,45.4,44.3,30.01,SSE,151,0.0,0.0,96,0.00,,---,0.00,VWS V14.01,2013-01-17 04:59:00,